Regional Weather Roundup
Issued by NWS

Home | Current Version | Previous Version | Text Only | Print | Product List | Glossary Off
Versions: 1 2 3 4 5 6 7 8 9 10 11 12 13 14 15 16 17 18 19 20 21 22 23 24 25 26 27 28 29 30 31 32 33 34 35 36 37 38 39 40 41 42 43 44 45 46 47 48 49 50

000
ASUS45 KCYS 230910
RWRWY

WYOMING REGIONAL WEATHER ROUNDUP
NATIONAL WEATHER SERVICE CHEYENNE WY
300 AM MDT SAT MAY 23 2015

NOTE:  "FAIR" INDICATES FEW OR NO CLOUDS BELOW 12,000 FEET
WITH NO SIGNIFICANT WEATHER AND/OR OBSTRUCTIONS TO VISIBILITY.

WYZ001-231000-
YELLOWSTONE NATIONAL PARK

CITY           SKY/WX    TMP DP  RH WIND       PRES   REMARKS
LK YELLOWSTONE   N/A     36  34  92 CALM      30.04R
W YELLOWSTONE  NOT AVBL

$$
WYZ002>013-054>058-071-098>099-231000-
NORTHERN WYOMING

CITY           SKY/WX    TMP DP  RH WIND       PRES   REMARKS
JACKSON        CLOUDY    45  43  93 CALM      29.97S
CODY           CLOUDY    48  46  93 NW3       29.97S
GREYBULL       CLOUDY    54  52  93 NW7       29.92S
WORLAND        CLOUDY    52  49  89 CALM      29.93S
SHERIDAN       MOCLDY    47  43  86 SE12      29.95R
BUFFALO        CLOUDY    46  44  93 SE13      29.98S
GILLETTE       CLOUDY    46  43  89 SE8       30.00S
HULETT         FAIR      45  39  81 CALM      30.03S
NEWCASTLE      CLOUDY    45  43  93 SE10      30.04S

$$
WYZ014>020-022>026-101>103-231000-
CENTRAL WYOMING

CITY           SKY/WX    TMP DP  RH WIND       PRES   REMARKS
BIG PINEY      LGT RAIN  41  38  89 NW3       30.00S
PINEDALE       LGT RAIN  41  41 100 CALM      30.01R
DUBOIS         DRIZZLE   37  36  93 CALM      29.99S
LANDER         CLOUDY    46  42  86 NW6       29.94S
RIVERTON         N/A     48  32  53 MISG      29.96R
CASPER         MOCLDY    40  39  97 CALM      29.98S FOG
DOUGLAS        CLOUDY    44  44 100 SE17      30.00S FOG

$$
WYZ021-027>030-104>119-231000-
SOUTHERN WYOMING

CITY           SKY/WX    TMP DP  RH WIND       PRES   REMARKS
EVANSTON       MOCLDY    41  37  86 E5        29.98F
KEMMERER       DRIZZLE   39  37  93 S6        30.00S WCI  35
FORT BRIDGER   SUNNY     39  39 100 CALM      30.01F
ROCK SPRINGS   FAIR      40  36  86 SW3       29.99F
DIXON          FAIR      38  36  91 NE8       30.05F WCI  32
RAWLINS        FAIR      41  36  82 SW7       30.03R
SARATOGA       FAIR      41  36  81 SE6       30.03F
LARAMIE        MOCLDY    39  37  92 SE12      30.04F WCI  32
CHEYENNE       CLOUDY    43  41  93 S13       30.05S
TORRINGTON     CLOUDY    44  43  96 SE9       30.03F FOG
PINE BLUFFS    FOG       43  43 100 CALM      30.07S VSB 1

$$


USA.gov is the U.S. government's official web portal to all federal, state and local government web resources and services.